STARLINK-1930

Last updated on Tue Nov 24 2020 00:02:03 GMT+0000 (Coordinated Universal Time)

1 46789U 20074BC 20328.58334491 -.00209585 00000-0 -23339-2 0 9992 2 46789 53.0549 13.4282 0001428 52.4643 12.4344 15.62847508 1859

Satellite not in orbit